User: anonymous   Login
Location: Unspecified
(0.0000°N, 0.0000°E)
Time: 19:46:49
(UTC+00:00)
Language:

Transit VBN-1 - Orbit

View from above orbital plane
View from above orbital plane
View from above satellite
View from above satellite

Ground track
Ground track

The orbit data is extracted from the following two-line orbital elements,

1 00670U 63038B   17267.21547536  .00000025  00000-0  27109-4 0  9999
2 00670  90.0751 325.9600 0042456 154.9431 264.3633 13.44276010646449
Epoch (UTC): 24 September 2017 05:10:17
Eccentricity: 0.0042456
inclination: 90.0751°
perigee height: 1061 km
apogee height: 1125 km
right ascension of ascending node: 325.9600°
argument of perigee: 154.9431°
revolutions per day: 13.44276010
mean anomaly at epoch: 264.3633°
orbit number at epoch: 64644

The dashed part of the orbit path shows where the satellite is in the earth's shadow,  

DLR